This is the latest recevied weather packets stored in our database for station/object KY0TEQ-13. If no packets are shown the sender has not sent any weather packets the latest 10 day(s).
| Time | Temp. | Humidity | Pressure | Rain* | Wind** | Luminosity | Snow |
|---|---|---|---|---|---|---|---|
| 1777815166 | 7.22° C | 40% | 1307.9 hPa | 0 mm | - | 95 W/m² | - |
| 1777814862 | 6.67° C | 41% | 1307.9 hPa | 0 mm | - | 93 W/m² | - |
| 1777814558 | 6.11° C | 43% | 1308 hPa | 0 mm | - | 88 W/m² | - |
| 1777814256 | 5.56° C | 43% | 1307.8 hPa | 0 mm | - | 78 W/m² | - |
| 1777813952 | 5° C | 44% | 1308 hPa | 0 mm | - | 62 W/m² | - |
| 1777813650 | 4.44° C | 45% | 1308 hPa | 0 mm | - | 54 W/m² | - |
| 1777813347 | 3.89° C | 46% | 1307.7 hPa | 0 mm | - | 43 W/m² | - |
| 1777813045 | 3.89° C | 46% | 1307.8 hPa | 0 mm | - | 39 W/m² | - |
| 1777812742 | 3.33° C | 47% | 1307.8 hPa | 0 mm | - | 33 W/m² | - |
| 1777812438 | 2.22° C | 52% | 1307.8 hPa | 0 mm | - | 29 W/m² | - |
| 1777812137 | 1.67° C | 55% | 1307.8 hPa | 0 mm | - | 25 W/m² | - |
| 1777811835 | 2.22° C | 51% | 1307.6 hPa | 0 mm | - | 20 W/m² | - |
| 1777811532 | 2.22° C | 51% | 1307.8 hPa | 0 mm | - | 15 W/m² | - |
| 1777811228 | 1.67° C | 52% | 1307.8 hPa | 0 mm | - | 11 W/m² | - |
| 1777810925 | 1.67° C | 52% | 1307.7 hPa | 0 mm | - | 7 W/m² | - |
| 1777810621 | 1.67° C | 52% | 1307.6 hPa | 0 mm | - | 4 W/m² | - |
| 1777810319 | 0.56° C | 54% | 1307.7 hPa | 0 mm | - | 2 W/m² | - |
| 1777810014 | 1.11° C | 52% | 1307.7 hPa | 0 mm | - | 1 W/m² | - |
| 1777809713 | 1.67° C | 50% | 1307.7 hPa | 0 mm | - | 0 W/m² | - |
| 1777809410 | 1.11° C | 50% | 1307.7 hPa | 0 mm | - | 0 W/m² | - |
| 1777809108 | 1.11° C | 51% | 1307.8 hPa | 0 mm | - | 0 W/m² | - |
| 1777808805 | 0.56° C | 52% | 1307.7 hPa | 0 mm | - | 0 W/m² | - |
| 1777808502 | 0.56° C | 53% | 1307.7 hPa | 0 mm | - | 0 W/m² | - |
| 1777808199 | 1.11° C | 51% | 1307.7 hPa | 0 mm | - | 0 W/m² | - |
| 1777807898 | 1.11° C | 53% | 1307.8 hPa | 0 mm | - | 0 W/m² | - |
* Rain latest hour (hover to see other rain measurements)
** Current wind speed in m/s (hover to see current wind gust speed)